Voltar ao catálogo

THOR ABLESTAR DEB

AtivoLEO
NORAD 262·DEBRIS·🇺🇸 United States

Lançado Jun 29, 1961 de Cape Canaveral Space Force Station

Loading…

Próximas Passagens (próximas 24 horas)

TLE

AtualizadoSource: Space-Track

Época: Sep 7, 2026, 06:22 UTC

1 00262U 61015CJ  26250.26575667  .00000826  00000-0  18832-3 0  9993
2 00262  66.4607 197.4570 0053782  22.2142 338.1282 14.60454871370504

Acompanhe THOR ABLESTAR DEB em tempo real com AllMySat

Download on the App Store